Regional Weather Roundup
Issued by NWS Cleveland, OH

Home | Current Version | Previous Version | Graphics & Text | Print | Product List | Glossary On
Versions: 1 2 3 4 5 6 7 8 9 10 11 12 13 14 15 16 17 18 19 20 21 22 23 24 25 26 27 28 29 30 31 32 33 34 35 36 37 38 39 40 41 42 43 44 45 46 47 48 49 50
000
ASUS41 KCLE 230210
RWRCLE
OHIO REGIONAL WEATHER ROUNDUP
NATIONAL WEATHER SERVICE WILMINGTON, OH
900 PM EST WED NOV 22 2017

NOTE: "FAIR" INDICATES FEW OR NO CLOUDS BELOW 12,000 FEET WITH NO
SIGNIFICANT WEATHER AND/OR OBSTRUCTIONS TO VISIBILITY.

OHZ001>008-015>018-024>027-034-035-043-044-230300-
   NORTHWEST OHIO

CITY           SKY/WX    TMP DP  RH WIND       PRES   REMARKS
DEFIANCE       FAIR      26  19  74 CALM      30.25F
FINDLAY        FAIR      26  19  74 CALM      30.23F
TOLEDO EXPRESS FAIR      28  21  75 S5        30.24F WCI  23
TOLEDO EXEC    FAIR      28  20  71 SW5       30.25F WCI  23
LIMA           FAIR      26  20  77 SE5       30.23F WCI  20
$$

OHZ009>014-019>023-028>033-038-089-230300-
   NORTHEAST OHIO

CITY           SKY/WX    TMP DP  RH WIND       PRES   REMARKS
CLE-HOPKINS    CLOUDY    31  21  66 SW6       30.26F WCI  25
CLE-LAKEFRONT  CLOUDY    32  20  61 SW7       30.23F WCI  26
CUY CO. ARPT   CLOUDY    34  21  60 CALM      30.23F
LORAIN-ELYRIA  FAIR      28  16  60 SW3       30.24F
ASHTABULA      CLOUDY    31  23  72 CALM      30.22F
AKRON-CANTON   CLOUDY    30  17  58 CALM      30.22F
WOOSTER        NOT AVBL
MANSFIELD      FAIR      28  17  63 SE3       30.22F
YOUNGSTOWN     CLOUDY    30  21  69 W5        30.21F WCI  25
$$

OHZ042-051>053-060>062-070>072-077>081-230300-
  SOUTHWEST OHIO

CITY           SKY/WX    TMP DP  RH WIND       PRES   REMARKS
CINC-COVINGTON FAIR      30  24  78 CALM      30.25S
CINC-LUNKEN    FAIR      26  24  92 CALM      30.29R
HAMILTON       FAIR      25  23  92 CALM      30.27F
DAYTON         FAIR      27  22  81 E5        30.25F WCI  22
WRIGHT-PAT AFB FAIR      28  20  71 CALM      30.24F
DAYTON GENERAL FAIR      28  21  75 E6        30.24F WCI  22
WILMINGTON     FAIR      25  22  88 CALM      30.24F
$$

OHZ036-037-039>041-045>050-054>059-063>069-073>076-082>088-230300-
  CENTRAL AND SOUTHEAST OHIO

CITY           SKY/WX    TMP DP  RH WIND       PRES   REMARKS
COLUMBUS       MOCLDY    32  21  64 E3        30.25F
OSU AIRPORT    FAIR      28  21  75 CALM      30.24F
BOLTON FIELD   FAIR      28  23  81 CALM      30.25F
RICKENBACK AFB FAIR      29  21  73 E5        30.25F WCI  24
NEWARK         CLOUDY    31  20  63 CALM      30.24F
MARION         FAIR      26  18  71 CALM      30.24F
LANCASTER      FAIR      26  21  81 N3        30.25F
ZANESVILLE     MOCLDY    32  19  58 CALM      30.24F
NEW PHILLY     CLOUDY    32  19  58 CALM      30.25F
$$




USA.gov is the U.S. government's official web portal to all federal, state and local government web resources and services.